Location: Sungai Bunut
(2.6333°N, 113.7333°E)
Time: 22:01:16
(UTC+00:00)

deb Explorer IX - Visible Passes

Search period start: 06 December 2023 00:00
Search period end: 16 December 2023 00:00
Orbit: 524 x 934 km, 38.8° (Epoch: 05 December)

Date Brightness Start Highest point End Pass type
(mag) Time Alt. Az. Time Alt. Az. Time Alt. Az.
06 Dec ? 20:13:17 46° NNE 20:13:34 46° NE 20:19:29 10° ESE visible
07 Dec ? 19:24:23 19° E 19:24:23 19° E 19:26:34 10° E visible
07 Dec ? 21:03:44 28° W 21:06:27 48° SW 21:12:29 10° SSE visible
08 Dec ? 20:14:45 71° S 20:14:45 71° S 20:20:26 10° SE visible
08 Dec ? 21:56:50 10° WSW 21:59:37 13° SW 22:02:27 10° S visible
09 Dec ? 19:25:40 24° ESE 19:25:40 24° ESE 19:28:04 10° SE visible
09 Dec ? 21:05:01 17° WSW 21:07:16 20° SW 21:11:43 10° S visible
10 Dec ? 20:15:51 29° SSW 20:15:51 29° SSW 20:20:13 10° SSE visible
11 Dec ? 19:26:35 19° SSE 19:26:35 19° SSE 19:28:18 10° SSE visible
12 Dec ? 20:16:33 12° SSW 20:16:33 12° SSW 20:18:06 10° S visible
13 Dec ? 19:27:05 10° S 19:27:05 10° S 19:27:12 10° S visible
